Yankton, SD

1:40 AM CST on February 20, 2017 (GMT -0600)
Gurney Municipal

Weather History for KYKN - July, 2013

Change the Weather History Date:

Friday, July 12, 2013

  Actual Average Record
Temperature  
Mean Temperature 80 °F -  
Max Temperature 91 °F 88 °F 105 °F (1954)
Min Temperature 68 °F 64 °F 48 °F (1975)
Cooling Degree Days 14    
Growing Degree Days 30 (Base 50)    
Moisture  
Dew Point 67 °F    
Average Humidity 63    
Maximum Humidity 78    
Minimum Humidity 52    
Precipitation  
Precipitation 0.00 in - - ()
Sea Level Pressure  
Sea Level Pressure 29.87 in    
Wind  
Wind Speed 13 mph (SSE)    
Max Wind Speed 21 mph    
Max Gust Speed 29 mph    
Visibility 10 miles    
Events      
Averages and records for this station are not official NWS values.
T = Trace of Precipitation, MM = Missing Value Source: NWS Daily Summary

Daily Weather History Graph

Daily Weather History Graph

Search for Another Location

Airport or City:

Trip Planner

Search our weather history database for the weather conditions in past years. The results will help you decide how hot, cold, wet, or windy it might be!

Date:

Astronomy

Jul. 12, 2013 Rise Set
Actual Time 6:02 AM CDT 9:08 PM CDT
Civil Twilight 5:27 AM CDT 9:42 PM CDT
Nautical Twilight 4:43 AM CDT 10:26 PM CDT
Astronomical Twilight 3:51 AM CDT 11:18 PM CDT
Moon 10:27 AM CDT (7/12) 11:10 PM CDT (7/12)
Length of Visible Light 16h 14m
Length of Day
15h 05m
Waxing Crescent, 17% of the Moon is Illuminated
Jul 12
Waxing Crescent
Jul 15
First Quarter
Jul 22
Full
Jul 29
Last Quarter
Aug 6
New

Hourly Weather History & Observations

Time (CDT) Temp. Heat Index Dew Point Humidity Pressure Visibility Wind Dir Wind Speed Gust Speed Precip Events Conditions
12:15 AM 71.6 °F - 62.6 °F 73% 29.94 in 10.0 mi SE 10.4 mph - N/A   Clear
12:35 AM 73.4 °F - 62.6 °F 69% 29.94 in 10.0 mi SE 10.4 mph - N/A   Clear
12:55 AM 71.6 °F - 62.6 °F 73% 29.94 in 10.0 mi SE 10.4 mph - N/A   Clear
1:15 AM 71.6 °F - 62.6 °F 73% 29.94 in 10.0 mi SE 11.5 mph - N/A   Clear
1:35 AM 71.6 °F - 62.6 °F 73% 29.94 in 10.0 mi SSE 13.8 mph - N/A   Clear
1:55 AM 71.6 °F - 62.6 °F 73% 29.93 in 10.0 mi SE 11.5 mph - N/A   Clear
2:15 AM 71.6 °F - 62.6 °F 73% 29.93 in 10.0 mi SE 12.7 mph - N/A   Clear
2:35 AM 71.6 °F - 60.8 °F 69% 29.93 in 10.0 mi SE 11.5 mph - N/A   Clear
2:55 AM 69.8 °F - 60.8 °F 73% 29.93 in 10.0 mi SE 10.4 mph - N/A   Clear
3:15 AM 69.8 °F - 60.8 °F 73% 29.92 in 10.0 mi SE 11.5 mph - N/A   Clear
3:35 AM 69.8 °F - 60.8 °F 73% 29.92 in 10.0 mi SE 11.5 mph - N/A   Clear
3:55 AM 69.8 °F - 60.8 °F 73% 29.92 in 10.0 mi ESE 8.1 mph - N/A   Clear
4:15 AM 69.8 °F - 60.8 °F 73% 29.92 in 10.0 mi SE 5.8 mph - N/A   Clear
4:35 AM 68.0 °F - 60.8 °F 78% 29.92 in 10.0 mi SE 8.1 mph - N/A   Clear
4:55 AM 68.0 °F - 60.8 °F 78% 29.92 in 10.0 mi SE 8.1 mph - N/A   Clear
5:15 AM 69.8 °F - 60.8 °F 73% 29.91 in 10.0 mi ESE 8.1 mph - N/A   Clear
5:35 AM 69.8 °F - 60.8 °F 73% 29.91 in 10.0 mi SE 11.5 mph - N/A   Clear
5:55 AM 69.8 °F - 60.8 °F 73% 29.91 in 10.0 mi SE 10.4 mph - N/A   Clear
6:15 AM 69.8 °F - 60.8 °F 73% 29.91 in 10.0 mi SE 9.2 mph - N/A   Clear
6:35 AM 69.8 °F - 60.8 °F 73% 29.91 in 10.0 mi SE 10.4 mph - N/A   Clear
6:55 AM 69.8 °F - 60.8 °F 73% 29.91 in 10.0 mi SE 9.2 mph - N/A   Clear
7:15 AM 69.8 °F - 60.8 °F 73% 29.91 in 9.0 mi SE 10.4 mph - N/A   Clear
7:35 AM 71.6 °F - 60.8 °F 69% 29.91 in 10.0 mi SSE 12.7 mph - N/A   Clear
7:55 AM 73.4 °F - 60.8 °F 65% 29.91 in 10.0 mi SSE 15.0 mph 19.6 mph N/A   Clear
8:15 AM 73.4 °F - 60.8 °F 65% 29.90 in 10.0 mi SSE 15.0 mph - N/A   Clear
8:35 AM 75.2 °F - 62.6 °F 65% 29.90 in 10.0 mi SSE 12.7 mph - N/A   Clear
8:55 AM 77.0 °F - 64.4 °F 65% 29.90 in 10.0 mi SSE 15.0 mph - N/A   Clear
9:15 AM 78.8 °F - 62.6 °F 57% 29.90 in 10.0 mi South 15.0 mph 21.9 mph N/A   Clear
9:35 AM 80.6 °F 81.8 °F 62.6 °F 54% 29.89 in 10.0 mi SSE 19.6 mph 24.2 mph N/A   Clear
9:55 AM 80.6 °F 82.3 °F 64.4 °F 58% 29.89 in 10.0 mi SSE 18.4 mph 24.2 mph N/A   Clear
10:15 AM 82.4 °F 83.9 °F 64.4 °F 54% 29.88 in 10.0 mi SSE 16.1 mph - N/A   Clear
10:35 AM 82.4 °F 84.6 °F 66.2 °F 58% 29.88 in 10.0 mi SSE 16.1 mph 23.0 mph N/A   Clear
10:55 AM 84.2 °F 86.6 °F 66.2 °F 55% 29.88 in 10.0 mi SSE 18.4 mph 23.0 mph N/A   Clear
11:15 AM 84.2 °F 86.6 °F 66.2 °F 55% 29.87 in 10.0 mi SSE 19.6 mph - N/A   Clear
11:35 AM 84.2 °F 87.3 °F 68.0 °F 58% 29.87 in 10.0 mi SE 16.1 mph - N/A   Clear
11:55 AM 86.0 °F 89.4 °F 68.0 °F 55% 29.87 in 10.0 mi SSE 16.1 mph 25.3 mph N/A   Clear
12:15 PM 86.0 °F 90.4 °F 69.8 °F 58% 29.86 in 10.0 mi SSE 17.3 mph 21.9 mph N/A   Clear
12:35 PM 87.8 °F 92.6 °F 69.8 °F 55% 29.86 in 10.0 mi SSE 15.0 mph 24.2 mph N/A   Clear
12:55 PM 87.8 °F 92.6 °F 69.8 °F 55% 29.85 in 10.0 mi SSE 18.4 mph 24.2 mph N/A   Clear
1:15 PM 87.8 °F 93.8 °F 71.6 °F 58% 29.85 in 10.0 mi SSE 13.8 mph 25.3 mph N/A   Clear
1:35 PM 89.6 °F 96.2 °F 71.6 °F 55% 29.85 in 10.0 mi SSE 13.8 mph 24.2 mph N/A   Clear
1:55 PM 89.6 °F 96.2 °F 71.6 °F 55% 29.85 in 10.0 mi SE 12.7 mph 25.3 mph N/A   Clear
2:15 PM 89.6 °F 96.2 °F 71.6 °F 55% 29.85 in 10.0 mi SSE 18.4 mph 27.6 mph N/A   Clear
2:35 PM 91.4 °F 98.4 °F 71.6 °F 52% 29.84 in 10.0 mi SE 17.3 mph 23.0 mph N/A   Clear
2:55 PM 91.4 °F 98.4 °F 71.6 °F 52% 29.84 in 10.0 mi SE 20.7 mph 24.2 mph N/A   Clear
3:15 PM 91.4 °F 98.4 °F 71.6 °F 52% 29.84 in 10.0 mi SE 18.4 mph 28.8 mph N/A   Clear
3:35 PM 91.4 °F 100.1 °F 73.4 °F 55% 29.84 in 10.0 mi SSE 17.3 mph 21.9 mph N/A   Clear
3:55 PM 91.4 °F 98.4 °F 71.6 °F 52% 29.84 in 10.0 mi SSE 19.6 mph 28.8 mph N/A   Clear
4:15 PM 91.4 °F 100.1 °F 73.4 °F 55% 29.83 in 10.0 mi SSE 18.4 mph 23.0 mph N/A   Clear
4:35 PM 91.4 °F 100.1 °F 73.4 °F 55% 29.83 in 10.0 mi SSE 18.4 mph 25.3 mph N/A   Clear
4:55 PM 91.4 °F 100.1 °F 73.4 °F 55% 29.82 in 10.0 mi SSE 18.4 mph 28.8 mph N/A   Clear
5:15 PM 91.4 °F 100.1 °F 73.4 °F 55% 29.82 in 10.0 mi SSE 19.6 mph 26.5 mph N/A   Clear
5:35 PM 91.4 °F 100.1 °F 73.4 °F 55% 29.82 in 10.0 mi SSE 18.4 mph 25.3 mph N/A   Clear
5:55 PM 91.4 °F 100.1 °F 73.4 °F 55% 29.81 in 10.0 mi SSE 16.1 mph 26.5 mph N/A   Clear
6:15 PM 91.4 °F 98.4 °F 71.6 °F 52% 29.81 in 10.0 mi SSE 15.0 mph 27.6 mph N/A   Clear
6:35 PM 91.4 °F 100.1 °F 73.4 °F 55% 29.82 in 10.0 mi SSE 18.4 mph 24.2 mph N/A   Clear
6:55 PM 91.4 °F 98.4 °F 71.6 °F 52% 29.81 in 10.0 mi SSE 18.4 mph 25.3 mph N/A   Clear
7:15 PM 89.6 °F 98.2 °F 73.4 °F 59% 29.81 in 10.0 mi SSE 19.6 mph 25.3 mph N/A   Clear
7:35 PM 89.6 °F 98.2 °F 73.4 °F 59% 29.81 in 10.0 mi SSE 16.1 mph 20.7 mph N/A   Clear
7:55 PM 87.8 °F 95.6 °F 73.4 °F 62% 29.82 in 8.0 mi SSE 16.1 mph - N/A   Clear
8:15 PM 87.8 °F 93.8 °F 71.6 °F 58% 29.82 in 10.0 mi SSE 18.4 mph 21.9 mph N/A   Clear
8:35 PM 86.0 °F 93.4 °F 73.4 °F 66% 29.83 in 10.0 mi SSE 13.8 mph - N/A   Clear
8:55 PM 84.2 °F 89.6 °F 71.6 °F 66% 29.83 in 10.0 mi SSE 16.1 mph 21.9 mph N/A   Clear
9:15 PM 84.2 °F 89.6 °F 71.6 °F 66% 29.83 in 10.0 mi SE 15.0 mph - N/A   Clear
9:35 PM 84.2 °F 89.6 °F 71.6 °F 66% 29.83 in 10.0 mi SE 15.0 mph 20.7 mph N/A   Clear
9:55 PM 84.2 °F 89.6 °F 71.6 °F 66% 29.84 in 10.0 mi SE 15.0 mph 20.7 mph N/A   Clear
10:15 PM 82.4 °F 87.2 °F 71.6 °F 70% 29.85 in 10.0 mi SSE 12.7 mph 21.9 mph N/A   Clear
10:35 PM 82.4 °F 87.2 °F 71.6 °F 70% 29.86 in 10.0 mi SSE 13.8 mph 20.7 mph N/A   Clear
10:55 PM 82.4 °F 87.2 °F 71.6 °F 70% 29.85 in 10.0 mi SSE 15.0 mph - N/A   Clear
11:15 PM 82.4 °F 86.3 °F 69.8 °F 66% 29.85 in 10.0 mi SSE 15.0 mph 21.9 mph N/A   Clear
11:35 PM 82.4 °F 86.3 °F 69.8 °F 66% 29.85 in 10.0 mi SSE 16.1 mph 25.3 mph N/A   Clear
11:55 PM 80.6 °F 83.9 °F 69.8 °F 70% 29.86 in 10.0 mi SSE 16.1 mph - N/A   Clear